When you browse on this site, cookies collect data to enhance your experience and personalize the content and advertising you see.
Visit our Privacy Policy to learn more. By continuing to use the site, you agree to this use of cookies and data.
  • In Hungary
  • List of Countries
  • For 7 days
  • Water Temperature
  • Weather Map
  • News
  • Weather Widgets
  • user-avatar
    Login

    Hourly Weather Notodden

    Today, 17 August, Saturday

    Time Temperature Precipitation Wind Pressure Humidity
    00:00 +14°C° 0 mm 2 mps 742 mmHg 87%
    01:00 +14°C° 0 mm 2 mps 741 mmHg 91%
    02:00 +14°C° 0.1 mm 2 mps 741 mmHg 93%
    03:00 +13°C° 0.1 mm 2 mps 741 mmHg 95%
    04:00 +13°C° 0.1 mm 2 mps 740 mmHg 97%
    05:00 +14°C° 1.2 mm 2 mps 740 mmHg 97%
    06:00 +14°C° 1.2 mm 2 mps 739 mmHg 98%
    07:00 +14°C° 1.2 mm 2 mps 739 mmHg 98%
    08:00 +15°C° 3.5 mm 2 mps 738 mmHg 98%
    09:00 +15°C° 3.5 mm 2 mps 738 mmHg 98%
    10:00 +14°C° 3.5 mm 3 mps 737 mmHg 98%
    11:00 +16°C° 2.9 mm 3 mps 737 mmHg 98%
    12:00 +16°C° 2.9 mm 3 mps 737 mmHg 98%
    13:00 +16°C° 2.9 mm 3 mps 737 mmHg 98%
    14:00 +17°C° 0.4 mm 3 mps 737 mmHg 93%
    15:00 +18°C° 0.4 mm 4 mps 736 mmHg 87%
    16:00 +19°C° 0.4 mm 4 mps 736 mmHg 82%
    17:00 +19°C° 0.2 mm 4 mps 736 mmHg 83%
    18:00 +18°C° 0.2 mm 3 mps 736 mmHg 84%
    19:00 +17°C° 0.2 mm 3 mps 736 mmHg 86%
    20:00 +16°C° 0.1 mm 3 mps 736 mmHg 89%
    21:00 +15°C° 0.1 mm 2 mps 736 mmHg 93%
    22:00 +14°C° 0.1 mm 2 mps 737 mmHg 96%
    23:00 +13°C° 0 mm 1 mps 737 mmHg 96%

    Tomorrow, 18 August, Sunday

    Time Temperature Precipitation Wind Pressure Humidity
    00:00 +13°C° 0 mm 1 mps 737 mmHg 97%
    01:00 +12°C° 0 mm 1 mps 737 mmHg 97%
    02:00 +12°C° 0 mm 1 mps 738 mmHg 97%
    03:00 +11°C° 0 mm 1 mps 738 mmHg 98%
    04:00 +11°C° 0 mm 1 mps 738 mmHg 98%
    05:00 +12°C° 0 mm 1 mps 738 mmHg 96%
    06:00 +12°C° 0 mm 1 mps 738 mmHg 93%
    07:00 +13°C° 0 mm 1 mps 738 mmHg 91%
    08:00 +14°C° 0 mm 1 mps 739 mmHg 83%
    09:00 +16°C° 0 mm 2 mps 739 mmHg 74%
    10:00 +17°C° 0 mm 2 mps 739 mmHg 66%
    11:00 +18°C° 0.2 mm 2 mps 738 mmHg 64%
    12:00 +18°C° 0.2 mm 3 mps 738 mmHg 63%
    13:00 +19°C° 0.2 mm 3 mps 738 mmHg 62%
    14:00 +18°C° 0.2 mm 3 mps 738 mmHg 64%
    15:00 +18°C° 0.2 mm 3 mps 738 mmHg 66%
    16:00 +18°C° 0.2 mm 3 mps 737 mmHg 68%
    17:00 +17°C° 0.2 mm 3 mps 737 mmHg 74%
    18:00 +16°C° 0.2 mm 2 mps 737 mmHg 79%
    19:00 +15°C° 0.2 mm 2 mps 737 mmHg 85%
    20:00 +14°C° 0 mm 2 mps 737 mmHg 89%
    21:00 +13°C° 0 mm 1 mps 738 mmHg 93%
    22:00 +12°C° 0 mm 1 mps 738 mmHg 97%
    23:00 +11°C° 0 mm 1 mps 738 mmHg 97%

    Day after tomorrow, 19 August, Monday

    Time Temperature Precipitation Wind Pressure Humidity
    00:00 +11°C° 0 mm 1 mps 738 mmHg 97%
    01:00 +10°C° 0 mm 1 mps 738 mmHg 97%
    02:00 +10°C° 0 mm 1 mps 738 mmHg 97%
    03:00 +10°C° 0 mm 1 mps 738 mmHg 97%
    04:00 +10°C° 0 mm 1 mps 739 mmHg 97%
    05:00 +11°C° 0 mm 1 mps 739 mmHg 96%
    06:00 +12°C° 0 mm 1 mps 739 mmHg 94%
    07:00 +13°C° 0 mm 1 mps 739 mmHg 93%
    08:00 +14°C° 0 mm 2 mps 739 mmHg 86%
    09:00 +14°C° 0 mm 3 mps 739 mmHg 80%
    10:00 +17°C° 0 mm 3 mps 740 mmHg 74%
    11:00 +17°C° 0.2 mm 3 mps 740 mmHg 71%
    12:00 +18°C° 0.2 mm 4 mps 740 mmHg 69%
    13:00 +19°C° 0.2 mm 4 mps 740 mmHg 66%
    14:00 +18°C° 0.6 mm 4 mps 741 mmHg 71%
    15:00 +18°C° 0.6 mm 4 mps 741 mmHg 75%
    16:00 +17°C° 0.6 mm 4 mps 741 mmHg 80%
    17:00 +15°C° 0.3 mm 4 mps 741 mmHg 82%
    18:00 +15°C° 0.3 mm 4 mps 741 mmHg 83%
    19:00 +14°C° 0.3 mm 3 mps 742 mmHg 85%
    20:00 +13°C° 0 mm 3 mps 742 mmHg 87%
    21:00 +12°C° 0 mm 3 mps 743 mmHg 89%
    22:00 +10°C° 0 mm 2 mps 743 mmHg 91%
    23:00 +10°C° 0 mm 2 mps 743 mmHg 92%

    20 August, Tuesday

    Time Temperature Precipitation Wind Pressure Humidity
    00:00 +10°C° 0 mm 2 mps 743 mmHg 93%
    01:00 +9°C° 0 mm 2 mps 744 mmHg 94%
    02:00 +9°C° 0 mm 2 mps 744 mmHg 95%
    03:00 +9°C° 0 mm 2 mps 744 mmHg 96%
    04:00 +9°C° 0 mm 2 mps 744 mmHg 97%
    05:00 +10°C° 0 mm 2 mps 744 mmHg 95%
    06:00 +12°C° 0 mm 2 mps 745 mmHg 93%
    07:00 +13°C° 0 mm 2 mps 745 mmHg 91%
    08:00 +14°C° 0.1 mm 2 mps 745 mmHg 87%
    09:00 +15°C° 0.1 mm 2 mps 745 mmHg 83%
    10:00 +16°C° 0.1 mm 2 mps 746 mmHg 79%
    11:00 +17°C° 0.2 mm 2 mps 746 mmHg 74%
    12:00 +18°C° 0.2 mm 3 mps 746 mmHg 68%
    13:00 +19°C° 0.2 mm 3 mps 746 mmHg 63%
    14:00 +19°C° 0.2 mm 3 mps 746 mmHg 60%
    15:00 +19°C° 0.2 mm 3 mps 746 mmHg 58%
    16:00 +20°C° 0.2 mm 4 mps 747 mmHg 55%
    17:00 +19°C° 0 mm 3 mps 747 mmHg 59%
    18:00 +18°C° 0 mm 3 mps 747 mmHg 63%
    19:00 +17°C° 0 mm 2 mps 747 mmHg 67%
    20:00 +15°C° 0 mm 2 mps 748 mmHg 72%
    21:00 +13°C° 0 mm 2 mps 748 mmHg 77%
    22:00 +12°C° 0 mm 1 mps 748 mmHg 82%
    23:00 +11°C° 0 mm 1 mps 749 mmHg 83%

    21 August, Wednesday

    Time Temperature Precipitation Wind Pressure Humidity
    00:00 +11°C° 0 mm 1 mps 749 mmHg 84%
    01:00 +10°C° 0 mm 1 mps 749 mmHg 85%
    02:00 +10°C° 0 mm 1 mps 749 mmHg 86%
    03:00 +10°C° 0 mm 1 mps 749 mmHg 87%
    04:00 +9°C° 0 mm 1 mps 749 mmHg 87%
    05:00 +10°C° 0 mm 1 mps 750 mmHg 83%
    06:00 +12°C° 0 mm 1 mps 750 mmHg 79%
    07:00 +13°C° 0 mm 1 mps 750 mmHg 74%
    08:00 +15°C° 0 mm 2 mps 750 mmHg 66%
    09:00 +16°C° 0 mm 2 mps 750 mmHg 57%
    10:00 +18°C° 0 mm 2 mps 751 mmHg 49%
    11:00 +19°C° 0 mm 2 mps 751 mmHg 46%
    12:00 +20°C° 0 mm 3 mps 751 mmHg 44%
    13:00 +21°C° 0 mm 3 mps 751 mmHg 41%
    14:00 +20°C° 0 mm 3 mps 751 mmHg 41%
    15:00 +20°C° 0 mm 4 mps 750 mmHg 42%
    16:00 +20°C° 0 mm 4 mps 750 mmHg 42%
    17:00 +19°C° 0 mm 3 mps 750 mmHg 48%
    18:00 +18°C° 0 mm 3 mps 750 mmHg 54%
    19:00 +16°C° 0 mm 2 mps 750 mmHg 60%
    20:00 +15°C° 0 mm 2 mps 751 mmHg 66%
    21:00 +13°C° 0 mm 2 mps 751 mmHg 72%
    22:00 +12°C° 0 mm 1 mps 751 mmHg 77%
    23:00 +11°C° 0 mm 1 mps 751 mmHg 79%

    22 August, Thursday

    Time Temperature Precipitation Wind Pressure Humidity
    00:00 +11°C° 0 mm 1 mps 751 mmHg 81%
    01:00 +11°C° 0 mm 1 mps 751 mmHg 83%
    02:00 +11°C° 0.1 mm 1 mps 751 mmHg 83%
    03:00 +12°C° 0.1 mm 1 mps 750 mmHg 84%
    04:00 +12°C° 0.1 mm 1 mps 750 mmHg 84%
    05:00 +12°C° 0.1 mm 1 mps 750 mmHg 86%
    06:00 +12°C° 0.1 mm 1 mps 749 mmHg 88%
    07:00 +13°C° 0.1 mm 1 mps 749 mmHg 89%
    08:00 +13°C° 0.4 mm 1 mps 749 mmHg 90%
    09:00 +13°C° 0.4 mm 1 mps 749 mmHg 92%
    10:00 +13°C° 0.4 mm 1 mps 749 mmHg 93%
    11:00 +14°C° 0.8 mm 1 mps 749 mmHg 90%
    12:00 +15°C° 0.8 mm 1 mps 749 mmHg 87%
    13:00 +16°C° 0.8 mm 1 mps 749 mmHg 84%
    14:00 +17°C° 0.1 mm 2 mps 749 mmHg 72%
    15:00 +18°C° 0.1 mm 3 mps 749 mmHg 60%
    16:00 +19°C° 0.1 mm 4 mps 749 mmHg 49%
    17:00 +18°C° 0 mm 3 mps 749 mmHg 53%
    18:00 +17°C° 0 mm 3 mps 750 mmHg 56%
    19:00 +16°C° 0 mm 2 mps 750 mmHg 60%
    20:00 +15°C° 0 mm 2 mps 751 mmHg 64%
    21:00 +13°C° 0 mm 2 mps 751 mmHg 67%
    22:00 +12°C° 0 mm 1 mps 752 mmHg 70%
    23:00 +12°C° 0 mm 1 mps 752 mmHg 70%
    Show more